Location: Tamazert
(32.6352°N, 5.2072°W)
Time: 15:48:50
(UTC+00:00)

Cosmos 2341 Rocket - Pass Details

Date: 22 May 2022
Orbit: 969 x 1004 km, 82.9° (Epoch: 06 July)

Event Time Altitude Azimuth Distance (km) Brightness Sun altitude
Rises 04:18:05 0° 348° (NNW) 3,728 7.3 -11.8°
Reaches altitude 10° 04:20:40 10° 344° (NNW) 2,778 6.6 -11.4°
Maximum altitude 04:26:51 54° 269° (W) 1,201 4.2 -10.3°
Drops below altitude 10° 04:33:01 10° 193° (SSW) 2,765 6.0 -9.2°
Sets 04:35:35 0° 189° (S) 3,710 6.7 -8.7°
